Weather Roundup
Issued by NWS Chicago, IL

Home | Current Version | Previous Version | Text Only | Print | Product List | Glossary Off
Versions: 1 2 3 4 5 6 7 8 9 10 11 12 13 14 15 16 17 18 19 20 21 22 23 24 25 26 27 28 29 30 31 32 33 34 35 36 37 38 39 40 41 42 43 44 45 46 47 48 49 50

000
NZUS59 KLOT 061600
HRRLOT

CHICAGO AREA WEATHER ROUNDUP
NATIONAL WEATHER SERVICE CHICAGO/ROMEOVILLE IL
1100 AM CDT WED MAY 06 2015

NOTE: "FAIR" INDICATES FEW OR NO CLOUDS BELOW 12,000 FEET WITH NO
SIGNIFICANT WEATHER AND/OR OBSTRUCTIONS TO VISIBILITY.

* THESE STATIONS ARE NOT UNDER NWS QUALITY CONTROL. THEY ALSO MAY NOT
  REPORT WEATHER SUCH AS PRECIPITATION OR FOG.

ILZ005-006-012>014-019>023-061700-
NORTHEAST ILLINOIS

CITY           SKY/WX    TMP DP  RH WIND       PRES   REMARKS
OHARE          PTSUNNY   64  58  80 VRB5      30.17S HAZE
MIDWAY         MOSUNNY   66  58  75 S6        30.17F HAZE
AURORA         MOSUNNY   66  59  78 SE8       30.17S HAZE
WAUKEGAN       NOT AVBL
DUPAGE AIRPORT MOSUNNY   65  59  81 S3        30.17S HAZE
WHEELING       MOSUNNY   61  56  83 CALM      30.19S HAZE
NORTHERLY IS     N/A     54  53  97 NE1         N/A
$$

WIZ051-052-058>065-066-070>072-061700-
SOUTHEAST WISCONSIN

CITY           SKY/WX    TMP DP  RH WIND       PRES   REMARKS
MILWAUKEE      PTSUNNY   50  45  83 NE6       30.21S
KENOSHA*       PTSUNNY   57  55  93 E8        30.19S FOG
RACINE*        CLOUDY    52  49  89 NE7       30.21S
$$

INZ001>003-010>013-019-020-061700-
NORTHWEST INDIANA

CITY           SKY/WX    TMP DP  RH WIND       PRES   REMARKS
GARY*          MOSUNNY   68 N/A N/A SE7       30.18S HAZE
MICHIGAN CITY* NOT AVBL
RENSSELAER*    NOT AVBL
$$

LMZ740>746-061700-
SOUTHERN LAKE MICHIGAN

STATION/POSITION TIME  SKY/WX   TEMP WIND        PRES    VSBY
                                AIR  DIR/SP/G
                 (UTC)          (F)  (DEG/KT/KT) (MB)    (MI)
HARRISON CRIB    1500            50   70/  1/  2   N/A
BURNHAM HARBOR   1500            52   50/  1/  2   N/A
CALUMET HARBOR   1500            56   50/  4/  5   N/A
BURNS HARBOR     1500            65  180/  4/  7 1022.4F
MICHIGAN CITY    1500            64  120/  6/  9   N/A
$$

ABBREVIATIONS USED IN REMARKS
   TC - TEMPERATURE IN CELSIUS
  WCI - WIND CHILL INDEX
   HX - HEAT INDEX
  VSB - VISIBILITY
$$


USA.gov is the U.S. government's official web portal to all federal, state and local government web resources and services.